This is the latest recevied weather packets stored in our database for station/object XE2RCS-1. If no packets are shown the sender has not sent any weather packets the latest 10 day(s).
| Time | Temp. | Humidity | Pressure | Rain* | Wind** | Luminosity | Snow |
|---|---|---|---|---|---|---|---|
| 1777832080 | 23.33° C | 94% | 1018 hPa | 0 mm | - | - | - |
| 1777831480 | 23.33° C | 94% | 1018 hPa | 0 mm | - | - | - |
| 1777830879 | 16.67° C | 68% | 1018 hPa | 0 mm | - | - | - |
| 1777830279 | 16.67° C | 68% | 1018 hPa | 0 mm | - | - | - |
| 1777829678 | 16.67° C | 68% | 1018 hPa | 0 mm | - | - | - |
| 1777829077 | 16.11° C | 10% | - | 0 mm | - | - | - |
| 1777828477 | 16.11° C | 10% | - | 0 mm | - | - | - |
| 1777827876 | 16.11° C | 10% | - | 0 mm | - | - | - |
| 1777827276 | 12.22° C | 82% | 1019 hPa | 0 mm | - | - | - |
| 1777826675 | 12.22° C | 82% | 1019 hPa | 0 mm | - | - | - |
| 1777826074 | 12.22° C | 82% | 1020 hPa | 0 mm | - | - | - |
| 1777825474 | 12.22° C | 82% | 1020 hPa | 0 mm | - | - | - |
| 1777824873 | 11.67° C | 82% | 1020 hPa | 0 mm | - | - | - |
| 1777824272 | 11.67° C | 82% | 1020 hPa | 0 mm | - | - | - |
| 1777823672 | 11.67° C | 88% | 1020 hPa | 0 mm | - | - | - |
| 1777823071 | 11.67° C | 88% | 1020 hPa | 0 mm | - | - | - |
| 1777822470 | 11.67° C | 88% | 1020 hPa | 0 mm | - | - | - |
| 1777821869 | 12.22° C | 76% | 1021 hPa | 0 mm | - | - | - |
| 1777821269 | 13.33° C | 76% | 1021 hPa | 0 mm | - | - | - |
| 1777820669 | 13.33° C | 76% | 1021 hPa | 0 mm | - | - | - |
| 1777820068 | 12.78° C | 73% | 1021 hPa | 0 mm | - | - | - |
| 1777819467 | 10° C | 81% | 1022 hPa | 0 mm | - | - | - |
| 1777818866 | 10° C | 81% | 1022 hPa | 0 mm | - | - | - |
| 1777818266 | 11.11° C | 81% | 1023 hPa | 0 mm | - | - | - |
| 1777817665 | 11.11° C | 81% | 1023 hPa | 0 mm | - | - | - |
* Rain latest hour (hover to see other rain measurements)
** Current wind speed in m/s (hover to see current wind gust speed)